Weather in Kudu-Kyuyol

Russia / Sakha (Yakutia) Republic     59°26′26″N   121°18′35″E
temp.,
°C
wind,
m/s
gust,
m/s
humid.,
%
clouds,
%
prec.,
mm/h
press.,
hPa
HPBL,
m
18 may, tue
tue1800:00−4wsw1164100 0.0 100611
03:00−4wsw116690 0.0 100624
06:00−3wsw156094 0.0 1006305
09:000w4637100 0.2 10052569
12:00+1w4631100 0.0 10052328
15:00+3w4629100 0.0 10042856
18:00+2w463099 0.0 10052143
21:00−2w114885 0.0 100510
19 may, wed
wed1900:00−5sw116335 0.0 100610
03:00−6s1165100 0.0 100610
06:00−3se125291 0.0 100598
09:00+3sse233360 0.0 10041592
12:00+4sse233099 0.0 10032233
15:00+4wsw2345100 0.3 10031532
18:00+5se124097 0.3 10031392
21:00+1ene1161100 0.3 100510
20 may, thu
thu2000:00−2nne2276100 0.0 100513
03:00−3n1180100 0.0 100614
06:00−1nnw1269100 0.0 100799
09:00+4n3447100 0.0 1007923
12:00+7n3331100 0.0 10072665
15:00+8nnw3430100 0.0 10072387
18:00+7nw3535100 0.1 10082116
21:00+3wnw3862100 0.2 1011283
21 may, fri
fri2100:00+1nw2173100 0.0 101329
03:00−1nw118546 0.0 101511
06:000wnw11744 0.0 101778
09:00+7nnw12400 0.0 1017978
12:00+11ene012593 0.0 10152768
15:00+12s2122100 0.0 10143052
18:00+11s212478 0.0 10142562
21:00+6sse114188 0.0 101510
22 may, sat
sat2200:00+2se1147100 0.0 101510
03:00+2ene1150100 0.0 101510
06:00+3ene1251100 0.0 101368
09:00+9e3735100 0.0 10111428
12:00+11e5725100 0.0 10082270
15:00+12ese6826100 0.0 10062713
18:00+10e3939100 0.0 10062236
21:00+7ene2653100 0.0 1007214